When you browse on this site, cookies collect data to enhance your experience and personalize the content and advertising you see.
Visit our Privacy Policy to learn more. By continuing to use the site, you agree to this use of cookies and data.
  • In Czech Republic
  • List of Countries
  • For 7 days
  • Water Temperature
  • Satellite Maps
  • Weather Map
  • Weather Widgets
  • user-avatar
    Login

    Hourly Weather Campeche

    Today, 20 March, Wednesday

    Time Temperature Precipitation Wind Pressure Humidity
    00:00 +23°C° 0 mm 1 mps 760 mmHg 96%
    01:00 +22°C° 0 mm 1 mps 760 mmHg 96%
    02:00 +22°C° 0 mm 1 mps 760 mmHg 97%
    03:00 +19°C° 0 mm 0 mps 759 mmHg 98%
    04:00 +19°C° 0 mm 0 mps 760 mmHg 98%
    05:00 +19°C° 0 mm 0 mps 760 mmHg 98%
    06:00 +19°C° 0 mm 0 mps 760 mmHg 98%
    07:00 +23°C° 0 mm 1 mps 760 mmHg 89%
    08:00 +25°C° 0 mm 1 mps 761 mmHg 80%
    09:00 +27°C° 0 mm 1 mps 761 mmHg 71%
    10:00 +29°C° 0 mm 1 mps 761 mmHg 60%
    11:00 +32°C° 0 mm 1 mps 761 mmHg 49%
    12:00 +34°C° 0 mm 1 mps 760 mmHg 38%
    13:00 +34°C° 0 mm 1 mps 760 mmHg 38%
    14:00 +35°C° 0 mm 2 mps 759 mmHg 38%
    15:00 +35°C° 0 mm 2 mps 758 mmHg 37%
    16:00 +32°C° 0 mm 2 mps 758 mmHg 45%
    17:00 +31°C° 0 mm 2 mps 758 mmHg 54%
    18:00 +29°C° 0 mm 2 mps 758 mmHg 62%
    19:00 +28°C° 0 mm 2 mps 759 mmHg 68%
    20:00 +26°C° 0 mm 1 mps 760 mmHg 74%
    21:00 +25°C° 0 mm 1 mps 761 mmHg 80%
    22:00 +25°C° 0 mm 1 mps 761 mmHg 80%
    23:00 +24°C° 0 mm 1 mps 761 mmHg 80%

    Tomorrow, 21 March, Thursday

    Time Temperature Precipitation Wind Pressure Humidity
    00:00 +24°C° 0 mm 1 mps 761 mmHg 79%
    01:00 +23°C° 0 mm 1 mps 761 mmHg 82%
    02:00 +23°C° 0 mm 1 mps 761 mmHg 84%
    03:00 +22°C° 0 mm 1 mps 760 mmHg 86%
    04:00 +22°C° 0 mm 1 mps 761 mmHg 88%
    05:00 +21°C° 0 mm 1 mps 761 mmHg 90%
    06:00 +21°C° 0 mm 1 mps 761 mmHg 92%
    07:00 +23°C° 0 mm 1 mps 762 mmHg 80%
    08:00 +25°C° 0 mm 1 mps 762 mmHg 69%
    09:00 +28°C° 0 mm 2 mps 763 mmHg 58%
    10:00 +30°C° 0 mm 2 mps 762 mmHg 49%
    11:00 +32°C° 0 mm 2 mps 762 mmHg 40%
    12:00 +35°C° 0 mm 2 mps 761 mmHg 31%
    13:00 +35°C° 0 mm 2 mps 760 mmHg 31%
    14:00 +36°C° 0 mm 2 mps 759 mmHg 31%
    15:00 +36°C° 0 mm 2 mps 759 mmHg 31%
    16:00 +34°C° 0 mm 2 mps 759 mmHg 37%
    17:00 +31°C° 0 mm 2 mps 759 mmHg 43%
    18:00 +30°C° 0 mm 2 mps 759 mmHg 49%
    19:00 +28°C° 0 mm 2 mps 760 mmHg 51%
    20:00 +27°C° 0 mm 2 mps 761 mmHg 54%
    21:00 +26°C° 0 mm 2 mps 762 mmHg 56%
    22:00 +25°C° 0 mm 2 mps 762 mmHg 59%
    23:00 +24°C° 0 mm 2 mps 762 mmHg 63%

    Day after tomorrow, 22 March, Friday

    Time Temperature Precipitation Wind Pressure Humidity
    00:00 +23°C° 0 mm 1 mps 762 mmHg 66%
    01:00 +23°C° 0 mm 1 mps 761 mmHg 70%
    02:00 +22°C° 0 mm 1 mps 761 mmHg 74%
    03:00 +22°C° 0 mm 1 mps 761 mmHg 77%
    04:00 +21°C° 0 mm 1 mps 761 mmHg 80%
    05:00 +21°C° 0 mm 1 mps 761 mmHg 83%
    06:00 +21°C° 0 mm 1 mps 762 mmHg 85%
    07:00 +23°C° 0 mm 1 mps 762 mmHg 75%
    08:00 +25°C° 0 mm 1 mps 763 mmHg 65%
    09:00 +27°C° 0 mm 2 mps 763 mmHg 55%
    10:00 +30°C° 0 mm 1 mps 763 mmHg 47%
    11:00 +32°C° 0 mm 1 mps 762 mmHg 39%
    12:00 +35°C° 0 mm 1 mps 761 mmHg 31%
    13:00 +35°C° 0 mm 1 mps 760 mmHg 30%
    14:00 +35°C° 0 mm 1 mps 759 mmHg 29%
    15:00 +35°C° 0 mm 1 mps 758 mmHg 27%
    16:00 +34°C° 0 mm 2 mps 758 mmHg 33%
    17:00 +32°C° 0 mm 2 mps 759 mmHg 39%
    18:00 +30°C° 0 mm 2 mps 759 mmHg 44%
    19:00 +28°C° 0 mm 1 mps 759 mmHg 53%
    20:00 +26°C° 0 mm 1 mps 760 mmHg 62%
    21:00 +24°C° 0 mm 1 mps 761 mmHg 71%
    22:00 +24°C° 0 mm 1 mps 760 mmHg 70%
    23:00 +24°C° 0 mm 1 mps 760 mmHg 68%

    23 March, Saturday

    Time Temperature Precipitation Wind Pressure Humidity
    00:00 +24°C° 0 mm 2 mps 760 mmHg 67%
    01:00 +24°C° 0 mm 2 mps 760 mmHg 73%
    02:00 +23°C° 0 mm 1 mps 760 mmHg 78%
    03:00 +23°C° 0 mm 1 mps 759 mmHg 84%
    04:00 +23°C° 0 mm 1 mps 759 mmHg 86%
    05:00 +22°C° 0 mm 1 mps 760 mmHg 88%
    06:00 +22°C° 0 mm 1 mps 760 mmHg 90%
    07:00 +24°C° 0 mm 1 mps 761 mmHg 80%
    08:00 +26°C° 0 mm 2 mps 761 mmHg 69%
    09:00 +29°C° 0 mm 2 mps 762 mmHg 59%
    10:00 +31°C° 0 mm 2 mps 761 mmHg 52%
    11:00 +34°C° 0 mm 2 mps 760 mmHg 44%
    12:00 +36°C° 0 mm 2 mps 760 mmHg 37%
    13:00 +37°C° 0 mm 2 mps 759 mmHg 35%
    14:00 +37°C° 0 mm 2 mps 758 mmHg 32%
    15:00 +38°C° 0 mm 2 mps 757 mmHg 29%
    16:00 +35°C° 0 mm 1 mps 757 mmHg 34%
    17:00 +33°C° 0 mm 1 mps 757 mmHg 38%
    18:00 +31°C° 0 mm 1 mps 758 mmHg 42%
    19:00 +31°C° 0 mm 1 mps 758 mmHg 45%
    20:00 +30°C° 0 mm 1 mps 759 mmHg 47%
    21:00 +29°C° 0 mm 2 mps 760 mmHg 50%
    22:00 +28°C° 0 mm 2 mps 760 mmHg 54%
    23:00 +27°C° 0 mm 2 mps 760 mmHg 58%

    24 March, Sunday

    Time Temperature Precipitation Wind Pressure Humidity
    00:00 +26°C° 0 mm 2 mps 760 mmHg 61%
    01:00 +25°C° 0 mm 2 mps 759 mmHg 64%
    02:00 +24°C° 0 mm 2 mps 759 mmHg 67%
    03:00 +24°C° 0 mm 2 mps 759 mmHg 70%
    04:00 +23°C° 0 mm 1 mps 759 mmHg 74%
    05:00 +23°C° 0 mm 1 mps 759 mmHg 78%
    06:00 +22°C° 0 mm 1 mps 760 mmHg 82%
    07:00 +25°C° 0 mm 1 mps 760 mmHg 74%
    08:00 +27°C° 0 mm 2 mps 760 mmHg 66%
    09:00 +29°C° 0 mm 2 mps 761 mmHg 58%
    10:00 +32°C° 0 mm 2 mps 760 mmHg 49%
    11:00 +35°C° 0 mm 2 mps 759 mmHg 40%
    12:00 +37°C° 0 mm 2 mps 759 mmHg 32%
    13:00 +38°C° 0 mm 2 mps 758 mmHg 29%
    14:00 +39°C° 0 mm 2 mps 757 mmHg 27%
    15:00 +40°C° 0 mm 2 mps 756 mmHg 24%
    16:00 +37°C° 0 mm 1 mps 756 mmHg 29%
    17:00 +35°C° 0 mm 1 mps 756 mmHg 34%
    18:00 +33°C° 0 mm 1 mps 756 mmHg 39%
    19:00 +31°C° 0 mm 1 mps 757 mmHg 46%
    20:00 +29°C° 0 mm 1 mps 757 mmHg 53%
    21:00 +28°C° 0 mm 1 mps 758 mmHg 60%
    22:00 +27°C° 0 mm 1 mps 758 mmHg 62%
    23:00 +27°C° 0 mm 1 mps 758 mmHg 65%

    25 March, Monday

    Time Temperature Precipitation Wind Pressure Humidity
    00:00 +26°C° 0 mm 1 mps 758 mmHg 68%
    01:00 +25°C° 0 mm 1 mps 757 mmHg 71%
    02:00 +25°C° 0 mm 1 mps 757 mmHg 74%
    03:00 +24°C° 0 mm 1 mps 757 mmHg 77%
    04:00 +24°C° 0 mm 1 mps 757 mmHg 80%
    05:00 +23°C° 0 mm 1 mps 757 mmHg 83%
    06:00 +22°C° 0 mm 1 mps 758 mmHg 86%
    07:00 +25°C° 0 mm 1 mps 758 mmHg 76%
    08:00 +27°C° 0 mm 2 mps 758 mmHg 65%
    09:00 +30°C° 0 mm 2 mps 759 mmHg 55%
    10:00 +32°C° 0 mm 2 mps 758 mmHg 46%
    11:00 +36°C° 0 mm 2 mps 757 mmHg 36%
    12:00 +39°C° 0 mm 2 mps 757 mmHg 27%
    13:00 +40°C° 0 mm 1 mps 756 mmHg 24%
    14:00 +41°C° 0 mm 1 mps 755 mmHg 21%
    15:00 +42°C° 0 mm 1 mps 754 mmHg 18%
    16:00 +39°C° 0 mm 1 mps 755 mmHg 23%
    17:00 +36°C° 0 mm 1 mps 755 mmHg 28%
    18:00 +33°C° 0 mm 1 mps 755 mmHg 33%
    19:00 +32°C° 0 mm 1 mps 756 mmHg 42%
    20:00 +30°C° 0 mm 1 mps 756 mmHg 50%
    21:00 +28°C° 0 mm 1 mps 757 mmHg 59%
    22:00 +27°C° 0 mm 1 mps 757 mmHg 61%
    23:00 +26°C° 0 mm 1 mps 758 mmHg 62%
    Show more